| time (UTC) | temp F | wind direction | speed MPH | gust MPH | rain 1hr in | rain 24hr in | rain mn in | humidity % | barometer mb |
| 20260504233033 | 82 | 221 | 5.0 | 12.0 | 0.00 | 0.00 | 0.00 | 34 | 1011.8 |
| 20260504231534 | 82 | 229 | 8.0 | 14.0 | 0.00 | 0.00 | 0.00 | 33 | 1011.8 |
| 20260504230107 | 82 | 199 | 7.0 | 17.0 | 0.00 | 0.00 | 0.00 | 32 | 1011.8 |
| 20260504224536 | 83 | 195 | 5.0 | 13.0 | 0.00 | 0.00 | 0.00 | 32 | 1011.8 |
| 20260504223032 | 83 | 206 | 6.0 | 14.0 | 0.00 | 0.00 | 0.00 | 32 | 1011.9 |
| 20260504221642 | 83 | 232 | 7.0 | 11.0 | 0.00 | 0.00 | 0.00 | 32 | 1012.0 |
| 20260504220031 | 83 | 239 | 3.0 | 10.0 | 0.00 | 0.00 | 0.00 | 31 | 1012.0 |
| 20260504214536 | 83 | 202 | 6.0 | 16.0 | 0.00 | 0.00 | 0.00 | 31 | 1012.1 |
| 20260504213036 | 83 | 211 | 6.0 | 18.0 | 0.00 | 0.00 | 0.00 | 32 | 1012.2 |
| 20260504211537 | 83 | 208 | 7.0 | 19.0 | 0.00 | 0.00 | 0.00 | 32 | 1012.2 |
| 20260504210107 | 83 | 199 | 7.0 | 16.0 | 0.00 | 0.00 | 0.00 | 32 | 1012.3 |
| 20260504204535 | 83 | 198 | 7.0 | 12.0 | 0.00 | 0.00 | 0.00 | 33 | 1012.2 |
| 20260504203034 | 83 | 194 | 7.0 | 16.0 | 0.00 | 0.00 | 0.00 | 33 | 1012.3 |
| 20260504201534 | 82 | 198 | 6.0 | 12.0 | 0.00 | 0.00 | 0.00 | 35 | 1012.5 |
| 20260504200037 | 82 | 198 | 8.0 | 17.0 | 0.00 | 0.00 | 0.00 | 35 | 1012.5 |
| 20260504194536 | 82 | 231 | 4.0 | 14.0 | 0.00 | 0.00 | 0.00 | 36 | 1012.6 |
| 20260504191534 | 79 | 315 | 3.0 | 9.0 | 0.00 | 0.00 | 0.00 | 44 | 1012.8 |
| 20260504190037 | 77 | 350 | 5.0 | 10.0 | 0.00 | 0.00 | 0.00 | 48 | 1012.9 |
| 20260504184536 | 75 | 326 | 5.0 | 10.0 | 0.00 | 0.00 | 0.00 | 53 | 1013.0 |
| 20260504183036 | 73 | 331 | 5.0 | 10.0 | 0.00 | 0.00 | 0.00 | 55 | 1013.1 |
| 20260504181534 | 72 | 336 | 6.0 | 12.0 | 0.00 | 0.00 | 0.00 | 56 | 1013.1 |
| 20260504174536 | 70 | 339 | 5.0 | 9.0 | 0.00 | 0.00 | 0.00 | 58 | 1013.3 |
| 20260504171530 | 69 | 344 | 6.0 | 12.0 | 0.00 | 0.00 | 0.00 | 59 | 1013.4 |
| 20260504110106 | 47 | 138 | 14.0 | 48.0 | 0.00 | 0.00 | 0.00 | 86 | 1013.1 |
| 20260504070150 | 54 | 143 | 5.0 | 12.0 | 0.00 | 0.00 | 0.00 | 75 | 1013.4 |
| 20260504043034 | 63 | 134 | 3.0 | 7.0 | 0.00 | 0.00 | 0.00 | 55 | 1012.7 |
| 20260504041536 | 66 | 172 | 2.0 | 4.0 | 0.00 | 0.00 | 0.00 | 51 | 1012.3 |
| 20260504040045 | 65 | 190 | 2.0 | 3.0 | 0.00 | 0.00 | 0.00 | 53 | 1012.1 |
| 20260504034536 | 64 | 185 | 2.0 | 4.0 | 0.00 | 0.00 | 0.00 | 55 | 1012.0 |
| 20260504033037 | 64 | 158 | 2.0 | 10.0 | 0.00 | 0.00 | 0.00 | 56 | 1011.8 |
| 20260504031606 | 66 | 193 | 0.0 | 2.0 | 0.00 | 0.00 | 0.00 | 53 | 1011.7 |
| 20260504030031 | 71 | 181 | 0.0 | 3.0 | 0.00 | 0.00 | 0.00 | 44 | 1011.4 |
| 20260504023144 | 78 | 292 | 4.0 | 8.0 | 0.00 | 0.00 | 0.00 | 35 | 1011.3 |
| 20260504020036 | 82 | 328 | 4.0 | 11.0 | 0.00 | 0.00 | 0.00 | 30 | 1011.5 |
| 20260504014534 | 82 | 335 | 4.0 | 11.0 | 0.00 | 0.00 | 0.00 | 29 | 1011.6 |
| 20260504013034 | 83 | 324 | 4.0 | 7.0 | 0.00 | 0.00 | 0.00 | 28 | 1011.8 |
| 20260504011537 | 84 | 318 | 8.0 | 19.0 | 0.00 | 0.00 | 0.00 | 28 | 1011.9 |
| 20260504010034 | 84 | 313 | 7.0 | 20.0 | 0.00 | 0.00 | 0.00 | 27 | 1012.0 |
| 20260504004535 | 87 | 318 | 7.0 | 21.0 | 0.00 | 0.00 | 0.00 | 25 | 1012.2 |
| 20260504001531 | 86 | 331 | 5.0 | 13.0 | 0.00 | 0.00 | 0.00 | 26 | 1012.4 |
| 20260504000036 | 86 | 354 | 6.0 | 14.0 | 0.00 | 0.00 | 0.00 | 25 | 1012.5 |